,,PA_Meas_PMT16A,,PR_Meas_QMR101_102,,RH_Meas_QMH101,,SR_Meas_QMS101,,TA_Meas_QMH101,,GenWind,,GenWind,
time,status,PA,status,PR,status,RH,status,SR,status,TA,status,DirAvg,status,SpdAvg,
2010-11-23, 00:00:05,VALID,915.555,VALID,0,VALID,96.7335,VALID,0.107441,VALID,20.1108,VALID,330,VALID,0.400391,
2010-11-23, 00:01:05,VALID,915.518,VALID,0,VALID,96.7564,VALID,0,VALID,20.1108,VALID,330,VALID,0.479688,
2010-11-23, 00:02:05,VALID,915.472,VALID,0,VALID,96.7716,VALID,0,VALID,20.1123,VALID,330,VALID,0.4,
2010-11-23, 00:03:05,VALID,915.437,VALID,0,VALID,96.764,VALID,0.107441,VALID,20.0913,VALID,330,VALID,0.283984,
2010-11-23, 00:04:05,VALID,915.42,VALID,0,VALID,96.8098,VALID,0,VALID,20.0718,VALID,330,VALID,0.0570313,
2010-11-23, 00:05:05,VALID,915.419,VALID,0,VALID,96.8631,VALID,0.107441,VALID,20.0913,VALID,330,VALID,0,
2010-11-23, 00:06:05,VALID,915.414,VALID,0,VALID,96.8479,VALID,0.107441,VALID,20.0718,VALID,330,VALID,0,
2010-11-23, 00:07:05,VALID,915.395,VALID,0,VALID,96.8631,VALID,0.107441,VALID,20.0913,VALID,330,VALID,0,
2010-11-23, 00:08:05,VALID,915.482,VALID,0,VALID,96.8936,VALID,0,VALID,20.1108,VALID,330,VALID,0,
2010-11-23, 00:09:05,VALID,915.479,VALID,0,VALID,96.886,VALID,0,VALID,20.1108,VALID,330,VALID,0,
2010-11-23, 00:10:05,VALID,915.514,VALID,0,VALID,96.886,VALID,0,VALID,20.1303,VALID,330,VALID,0,
2010-11-23, 00:11:05,VALID,915.532,VALID,0,VALID,96.8631,VALID,0,VALID,20.1108,VALID,330,VALID,0,
2010-11-23, 00:12:05,VALID,915.563,VALID,0,VALID,96.8479,VALID,0.107441,VALID,20.0508,VALID,330,VALID,0,
2010-11-23, 00:13:05,VALID,915.546,VALID,0,VALID,96.8631,VALID,0.107441,VALID,20.0718,VALID,330,VALID,0,
2010-11-23, 00:14:05,VALID,915.569,VALID,0,VALID,96.8784,VALID,0,VALID,20.0928,VALID,330,VALID,0,
2010-11-23, 00:15:05,VALID,915.534,VALID,0,VALID,96.9012,VALID,0,VALID,20.1334,VALID,330,VALID,0,
2010-11-23, 00:16:05,VALID,915.556,VALID,0,VALID,96.9241,VALID,0,VALID,20.1123,VALID,330,VALID,0,
2010-11-23, 00:17:05,VALID,915.532,VALID,0,VALID,96.9165,VALID,0,VALID,20.1318,VALID,330,VALID,0,
2010-11-23, 00:18:05,VALID,915.531,VALID,0,VALID,96.886,VALID,0,VALID,20.1529,VALID,330,VALID,0,
2010-11-23, 00:19:05,VALID,915.536,VALID,0,VALID,96.8936,VALID,0,VALID,20.1108,VALID,330,VALID,0,
2010-11-23, 00:20:05,VALID,915.552,VALID,0,VALID,96.947,VALID,0,VALID,20.1318,VALID,330,VALID,0,
2010-11-23, 00:21:05,VALID,915.599,VALID,0,VALID,96.9012,VALID,0,VALID,20.1318,VALID,330,VALID,0,
2010-11-23, 00:22:05,VALID,915.616,VALID,0,VALID,96.8936,VALID,0,VALID,20.1123,VALID,330,VALID,0,
2010-11-23, 00:23:05,VALID,915.643,VALID,0,VALID,96.9012,VALID,0,VALID,20.0928,VALID,330,VALID,0,
2010-11-23, 00:24:05,VALID,915.69,VALID,0,VALID,96.8784,VALID,0,VALID,20.0928,VALID,330,VALID,0,
2010-11-23, 00:25:05,VALID,915.704,VALID,0,VALID,96.9089,VALID,0,VALID,20.0733,VALID,330,VALID,0,
2010-11-23, 00:26:05,VALID,915.713,VALID,0,VALID,96.9012,VALID,0,VALID,20.0733,VALID,330,VALID,0.775391,
2010-11-23, 00:27:05,VALID,915.741,VALID,0,VALID,96.9012,VALID,0,VALID,20.0733,VALID,330,VALID,0.86875,
2010-11-23, 00:28:05,VALID,915.736,VALID,0,VALID,96.9012,VALID,0,VALID,20.0733,VALID,330,VALID,0.791797,
2010-11-23, 00:29:04,VALID,915.727,VALID,0,VALID,96.9241,VALID,0,VALID,20.0538,VALID,330,VALID,0.705859,
2010-11-23, 00:30:04,VALID,915.731,VALID,0,VALID,96.9394,VALID,0,VALID,20.0538,VALID,330,VALID,1.025,
2010-11-23, 00:31:04,VALID,915.74,VALID,0,VALID,96.9622,VALID,0,VALID,20.0538,VALID,330,VALID,0.863672,
2010-11-23, 00:32:04,VALID,915.759,VALID,0,VALID,96.947,VALID,0.107441,VALID,20.0538,VALID,330,VALID,0.46875,
2010-11-23, 00:33:04,VALID,915.784,VALID,0,VALID,96.947,VALID,0,VALID,20.0733,VALID,330,VALID,0.436328,
2010-11-23, 00:34:04,VALID,915.748,VALID,0,VALID,96.9622,VALID,0,VALID,20.0733,VALID,330,VALID,0.126563,
2010-11-23, 00:35:04,VALID,915.751,VALID,0,VALID,96.9851,VALID,0,VALID,20.0733,VALID,330,VALID,0,
2010-11-23, 00:36:04,VALID,915.71,VALID,0,VALID,96.9622,VALID,0,VALID,20.0928,VALID,330,VALID,0,
2010-11-23, 00:37:04,VALID,915.719,VALID,0,VALID,97.0003,VALID,0,VALID,20.0733,VALID,330,VALID,0,
2010-11-23, 00:38:04,VALID,915.693,VALID,0,VALID,97.0003,VALID,0,VALID,20.0733,VALID,330,VALID,0,
2010-11-23, 00:39:04,VALID,915.679,VALID,0,VALID,96.9927,VALID,0,VALID,20.0928,VALID,330,VALID,0,
2010-11-23, 00:40:04,VALID,915.678,VALID,0,VALID,97.008,VALID,0,VALID,20.1123,VALID,330,VALID,0,
2010-11-23, 00:41:04,VALID,915.677,VALID,0,VALID,96.9927,VALID,0,VALID,20.0928,VALID,330,VALID,0,
2010-11-23, 00:42:04,VALID,915.65,VALID,0,VALID,96.9927,VALID,0,VALID,20.0928,VALID,330,VALID,0,
2010-11-23, 00:43:04,VALID,915.68,VALID,0,VALID,97.0003,VALID,0,VALID,20.0718,VALID,330,VALID,0,
2010-11-23, 00:44:04,VALID,915.656,VALID,0,VALID,97.0232,VALID,0,VALID,20.0733,VALID,330,VALID,0,
2010-11-23, 00:45:04,VALID,915.676,VALID,0,VALID,97.0003,VALID,0,VALID,20.0928,VALID,330,VALID,0,
2010-11-23, 00:46:04,VALID,915.649,VALID,0,VALID,97.0003,VALID,0,VALID,20.0523,VALID,330,VALID,0,
2010-11-23, 00:47:04,VALID,915.632,VALID,0,VALID,97.008,VALID,0,VALID,20.0733,VALID,330,VALID,0,
2010-11-23, 00:48:04,VALID,915.626,VALID,0,VALID,97.008,VALID,0,VALID,20.0733,VALID,330,VALID,0,
2010-11-23, 00:49:04,VALID,915.598,VALID,0,VALID,97.0461,VALID,0,VALID,20.0733,VALID,330,VALID,0,
2010-11-23, 00:50:04,VALID,915.6,VALID,0,VALID,97.0918,VALID,0,VALID,20.1123,VALID,330,VALID,0.508203,
2010-11-23, 00:51:04,VALID,915.617,VALID,0,VALID,97.0385,VALID,0,VALID,20.1123,VALID,330,VALID,0.554297,
2010-11-23, 00:52:04,VALID,915.593,VALID,0,VALID,97.008,VALID,0,VALID,20.0718,VALID,330,VALID,0.663281,
2010-11-23, 00:53:04,VALID,915.553,VALID,0,VALID,97.0232,VALID,0,VALID,20.0733,VALID,330,VALID,0.537109,
2010-11-23, 00:54:04,VALID,915.55,VALID,0,VALID,97.0156,VALID,0,VALID,20.0733,VALID,330,VALID,0,
2010-11-23, 00:55:04,VALID,915.514,VALID,0,VALID,97.0156,VALID,0,VALID,20.0928,VALID,330,VALID,0,
2010-11-23, 00:56:04,VALID,915.486,VALID,0,VALID,97.0461,VALID,0,VALID,20.0928,VALID,330,VALID,0,
2010-11-23, 00:57:04,VALID,915.437,VALID,0,VALID,97.0385,VALID,0.107441,VALID,20.0523,VALID,330,VALID,0,
2010-11-23, 00:58:04,VALID,915.384,VALID,0,VALID,97.0613,VALID,0,VALID,20.0928,VALID,330,VALID,0,
2010-11-23, 00:59:04,VALID,915.36,VALID,0,VALID,97.069,VALID,0,VALID,20.0928,VALID,330,VALID,0,
2010-11-23, 01:00:04,VALID,915.305,VALID,0,VALID,97.0766,VALID,0,VALID,20.1123,VALID,330,VALID,0,
2010-11-23, 01:01:04,VALID,915.28,VALID,0,VALID,97.0766,VALID,0,VALID,20.0913,VALID,330,VALID,0,
2010-11-23, 01:02:04,VALID,915.262,VALID,0,VALID,97.0842,VALID,0,VALID,20.1123,VALID,330,VALID,0,
2010-11-23, 01:03:04,VALID,915.226,VALID,0,VALID,97.0842,VALID,0,VALID,20.1123,VALID,330,VALID,0,
2010-11-23, 01:04:04,VALID,915.192,VALID,0,VALID,97.0461,VALID,0,VALID,20.0523,VALID,330,VALID,0,
2010-11-23, 01:05:04,VALID,915.163,VALID,0,VALID,97.069,VALID,0,VALID,20.0523,VALID,330,VALID,0,
2010-11-23, 01:06:04,VALID,915.147,VALID,0,VALID,97.0537,VALID,0,VALID,20.0928,VALID,330,VALID,0,
2010-11-23, 01:07:04,VALID,915.119,VALID,0,VALID,97.0613,VALID,0,VALID,20.0523,VALID,330,VALID,0,
2010-11-23, 01:08:04,VALID,915.08,VALID,0,VALID,97.0537,VALID,0,VALID,20.0733,VALID,330,VALID,0,
2010-11-23, 01:09:04,VALID,915.061,VALID,0,VALID,97.0613,VALID,0,VALID,20.0733,VALID,330,VALID,0,
2010-11-23, 01:10:04,VALID,915.007,VALID,0,VALID,97.069,VALID,0,VALID,20.0944,VALID,330,VALID,0,
2010-11-23, 01:11:04,VALID,914.986,VALID,0,VALID,97.0918,VALID,0,VALID,20.0928,VALID,330,VALID,0,
2010-11-23, 01:12:04,VALID,914.954,VALID,0,VALID,97.1071,VALID,0,VALID,20.1123,VALID,330,VALID,0,
2010-11-23, 01:13:04,VALID,914.963,VALID,0,VALID,97.069,VALID,0,VALID,20.0718,VALID,330,VALID,0,
2010-11-23, 01:14:04,VALID,914.922,VALID,0,VALID,97.0994,VALID,0,VALID,20.0718,VALID,330,VALID,0,
2010-11-23, 01:15:04,VALID,914.927,VALID,0,VALID,97.069,VALID,0,VALID,20.1139,VALID,330,VALID,0,
2010-11-23, 01:16:04,VALID,914.866,VALID,0,VALID,97.0385,VALID,0,VALID,20.1123,VALID,330,VALID,0,
2010-11-23, 01:17:04,VALID,914.886,VALID,0,VALID,97.008,VALID,0,VALID,20.0733,VALID,330,VALID,0,
2010-11-23, 01:18:04,VALID,914.858,VALID,0,VALID,97.0232,VALID,0,VALID,20.0343,VALID,330,VALID,0,
2010-11-23, 01:19:04,VALID,914.87,VALID,0,VALID,97.0385,VALID,0,VALID,20.0538,VALID,330,VALID,0,
2010-11-23, 01:20:04,VALID,914.88,VALID,0,VALID,97.0461,VALID,0,VALID,20.0538,VALID,330,VALID,0,
2010-11-23, 01:21:04,VALID,914.867,VALID,0,VALID,97.0537,VALID,0,VALID,20.0733,VALID,330,VALID,0,
2010-11-23, 01:22:04,VALID,914.854,VALID,0,VALID,97.0385,VALID,0,VALID,20.0328,VALID,330,VALID,0,
2010-11-23, 01:23:04,VALID,914.895,VALID,0,VALID,97.0003,VALID,0,VALID,20.0133,VALID,330,VALID,0,
2010-11-23, 01:24:04,VALID,914.915,VALID,0,VALID,96.9851,VALID,0,VALID,20.0148,VALID,330,VALID,0,
2010-11-23, 01:25:04,VALID,914.877,VALID,0,VALID,97.0003,VALID,0,VALID,19.9758,VALID,330,VALID,0,
2010-11-23, 01:26:04,VALID,914.907,VALID,0,VALID,97.0308,VALID,0,VALID,19.9758,VALID,330,VALID,0,
2010-11-23, 01:27:04,VALID,914.889,VALID,0,VALID,97.0308,VALID,0,VALID,20.0343,VALID,330,VALID,0,
2010-11-23, 01:28:04,VALID,914.862,VALID,0,VALID,97.0156,VALID,0,VALID,20.0148,VALID,330,VALID,0,
2010-11-23, 01:29:04,VALID,914.864,VALID,0,VALID,96.9927,VALID,0,VALID,19.9743,VALID,330,VALID,0,
2010-11-23, 01:30:04,VALID,914.815,VALID,0,VALID,97.0232,VALID,0,VALID,19.9758,VALID,330,VALID,0,
2010-11-23, 01:31:04,VALID,914.801,VALID,0,VALID,97.0385,VALID,0,VALID,19.9953,VALID,330,VALID,0,
2010-11-23, 01:32:04,VALID,914.728,VALID,0,VALID,97.0308,VALID,0,VALID,19.9548,VALID,330,VALID,0,
2010-11-23, 01:33:04,VALID,914.71,VALID,0,VALID,97.0156,VALID,0,VALID,19.9758,VALID,330,VALID,0,
2010-11-23, 01:34:04,VALID,914.703,VALID,0,VALID,97.0308,VALID,0,VALID,19.9758,VALID,330,VALID,0,
2010-11-23, 01:35:04,VALID,914.693,VALID,0,VALID,96.9851,VALID,0,VALID,19.8768,VALID,330,VALID,0,
2010-11-23, 01:36:04,VALID,914.669,VALID,0,VALID,96.9851,VALID,0,VALID,19.8783,VALID,330,VALID,0,
2010-11-23, 01:37:04,VALID,914.646,VALID,0,VALID,96.9775,VALID,0,VALID,19.8783,VALID,330,VALID,0,
2010-11-23, 01:38:04,VALID,914.63,VALID,0,VALID,96.9851,VALID,0,VALID,19.8378,VALID,319,VALID,0,
2010-11-23, 01:39:04,VALID,914.603,VALID,0,VALID,97.0232,VALID,0,VALID,19.8588,VALID,217,VALID,0.891406,
2010-11-23, 01:40:04,VALID,914.584,VALID,0,VALID,97.0385,VALID,0,VALID,19.8393,VALID,217,VALID,0.467187,
2010-11-23, 01:41:04,VALID,914.593,VALID,0,VALID,97.0613,VALID,0,VALID,19.8393,VALID,217,VALID,0.332422,
2010-11-23, 01:42:04,VALID,914.556,VALID,0,VALID,97.069,VALID,0,VALID,19.8393,VALID,216,VALID,0,
2010-11-23, 01:43:04,VALID,914.547,VALID,0,VALID,97.069,VALID,0,VALID,19.8798,VALID,216,VALID,0,
2010-11-23, 01:44:04,VALID,914.563,VALID,0,VALID,97.0766,VALID,0,VALID,19.8588,VALID,216,VALID,0,
2010-11-23, 01:45:04,VALID,914.576,VALID,0,VALID,97.0918,VALID,0,VALID,19.8798,VALID,217,VALID,0,
2010-11-23, 01:46:04,VALID,914.59,VALID,0,VALID,97.1071,VALID,0,VALID,19.8588,VALID,217,VALID,0,
2010-11-23, 01:47:04,VALID,914.583,VALID,0,VALID,97.0766,VALID,0,VALID,19.8573,VALID,217,VALID,0,
2010-11-23, 01:48:04,VALID,914.571,VALID,0,VALID,97.0994,VALID,0.107441,VALID,19.8378,VALID,217,VALID,0,
2010-11-23, 01:49:04,VALID,914.58,VALID,0,VALID,97.0918,VALID,0,VALID,19.8573,VALID,217,VALID,0,
2010-11-23, 01:50:04,VALID,914.529,VALID,0,VALID,97.0613,VALID,0.107441,VALID,19.8183,VALID,217,VALID,0,
2010-11-23, 01:51:04,VALID,914.537,VALID,0,VALID,97.0918,VALID,0.107441,VALID,19.8588,VALID,217,VALID,0,
2010-11-23, 01:52:04,VALID,914.526,VALID,0,VALID,97.0994,VALID,0,VALID,19.8183,VALID,217,VALID,0,
2010-11-23, 01:53:04,VALID,914.495,VALID,0,VALID,97.0842,VALID,0,VALID,19.8393,VALID,216,VALID,0,
2010-11-23, 01:54:04,VALID,914.474,VALID,0,VALID,97.1223,VALID,0,VALID,19.8183,VALID,217,VALID,0,
2010-11-23, 01:55:04,VALID,914.461,VALID,0,VALID,97.1071,VALID,0,VALID,19.8198,VALID,217,VALID,0,
2010-11-23, 01:56:04,VALID,914.458,VALID,0,VALID,97.1299,VALID,0,VALID,19.8393,VALID,217,VALID,0,
2010-11-23, 01:57:04,VALID,914.437,VALID,0,VALID,97.1452,VALID,0,VALID,19.8183,VALID,217,VALID,0,
2010-11-23, 01:58:04,VALID,914.456,VALID,0,VALID,97.1299,VALID,0,VALID,19.8378,VALID,217,VALID,0,
2010-11-23, 01:59:04,VALID,914.435,VALID,0,VALID,97.1147,VALID,0.107441,VALID,19.8183,VALID,217,VALID,0,
2010-11-23, 02:00:04,VALID,914.409,VALID,0,VALID,97.1071,VALID,0.107441,VALID,19.7988,VALID,217,VALID,0,
2010-11-23, 02:01:04,VALID,914.423,VALID,0,VALID,97.1299,VALID,0,VALID,19.8183,VALID,217,VALID,0,
2010-11-23, 02:02:04,VALID,914.418,VALID,0,VALID,97.1299,VALID,0,VALID,19.7988,VALID,217,VALID,0,
2010-11-23, 02:03:04,VALID,914.377,VALID,0,VALID,97.1452,VALID,0,VALID,19.8393,VALID,217,VALID,0,
2010-11-23, 02:04:04,VALID,914.41,VALID,0,VALID,97.1452,VALID,0.107441,VALID,19.8393,VALID,217,VALID,0,
2010-11-23, 02:05:04,VALID,914.389,VALID,0,VALID,97.1452,VALID,0.107441,VALID,19.7988,VALID,217,VALID,0,
2010-11-23, 02:06:04,VALID,914.409,VALID,0,VALID,97.1376,VALID,0,VALID,19.7988,VALID,217,VALID,0,
2010-11-23, 02:07:04,VALID,914.384,VALID,0,VALID,97.1376,VALID,0.107441,VALID,19.7988,VALID,217,VALID,0,
2010-11-23, 02:08:04,VALID,914.366,VALID,0,VALID,97.1528,VALID,0.107441,VALID,19.7988,VALID,217,VALID,0,
2010-11-23, 02:09:04,VALID,914.371,VALID,0,VALID,97.1452,VALID,0.107441,VALID,19.7793,VALID,217,VALID,0,
2010-11-23, 02:10:04,VALID,914.339,VALID,0,VALID,97.1299,VALID,0,VALID,19.7598,VALID,217,VALID,0,
2010-11-23, 02:11:04,VALID,914.371,VALID,0,VALID,97.1223,VALID,0,VALID,19.7613,VALID,217,VALID,0,
2010-11-23, 02:12:04,VALID,914.369,VALID,0,VALID,97.1223,VALID,0,VALID,19.7403,VALID,217,VALID,0,
2010-11-23, 02:13:04,VALID,914.367,VALID,0,VALID,97.1376,VALID,0.107441,VALID,19.7403,VALID,217,VALID,0,
2010-11-23, 02:14:04,VALID,914.372,VALID,0,VALID,97.1452,VALID,0,VALID,19.7418,VALID,217,VALID,0,
2010-11-23, 02:15:04,VALID,914.416,VALID,0,VALID,97.1299,VALID,0,VALID,19.7028,VALID,217,VALID,0,
2010-11-23, 02:16:04,VALID,914.392,VALID,0,VALID,97.069,VALID,0,VALID,19.6848,VALID,217,VALID,0,
2010-11-23, 02:17:04,VALID,914.388,VALID,0,VALID,97.1376,VALID,0,VALID,19.6443,VALID,217,VALID,0,
2010-11-23, 02:18:04,VALID,914.355,VALID,0,VALID,97.1681,VALID,0,VALID,19.6638,VALID,217,VALID,0,
2010-11-23, 02:19:04,VALID,914.347,VALID,0,VALID,97.1681,VALID,0,VALID,19.7238,VALID,217,VALID,0,
2010-11-23, 02:20:04,VALID,914.296,VALID,0,VALID,97.1833,VALID,0,VALID,19.7238,VALID,217,VALID,0,
2010-11-23, 02:21:04,VALID,914.318,VALID,0,VALID,97.2062,VALID,0,VALID,19.7028,VALID,217,VALID,0,
2010-11-23, 02:22:04,VALID,914.279,VALID,0,VALID,97.1986,VALID,0,VALID,19.7433,VALID,217,VALID,0,
2010-11-23, 02:23:04,VALID,914.249,VALID,0,VALID,97.1757,VALID,0,VALID,19.6638,VALID,217,VALID,0.153906,
2010-11-23, 02:24:04,VALID,914.264,VALID,0,VALID,97.1986,VALID,0,VALID,19.6443,VALID,217,VALID,0.842969,
2010-11-23, 02:25:04,VALID,914.299,VALID,0,VALID,97.1757,VALID,0,VALID,19.5858,VALID,217,VALID,1.12188,
2010-11-23, 02:26:04,VALID,914.318,VALID,0,VALID,97.1757,VALID,0,VALID,19.6068,VALID,217,VALID,0.806641,
2010-11-23, 02:27:04,VALID,914.284,VALID,0,VALID,97.1833,VALID,0,VALID,19.5663,VALID,216,VALID,1.02344,
2010-11-23, 02:28:04,VALID,914.285,VALID,0,VALID,97.1909,VALID,0,VALID,19.5663,VALID,100,VALID,0.873438,
2010-11-23, 02:29:04,VALID,914.31,VALID,0,VALID,97.1986,VALID,0,VALID,19.5468,VALID,100,VALID,0.495703,
2010-11-23, 02:30:04,VALID,914.284,VALID,0,VALID,97.2138,VALID,0,VALID,19.5873,VALID,100,VALID,0.804688,
2010-11-23, 02:31:04,VALID,914.286,VALID,0,VALID,97.2214,VALID,0,VALID,19.5858,VALID,100,VALID,0.961328,
2010-11-23, 02:32:04,VALID,914.25,VALID,0,VALID,97.2367,VALID,0,VALID,19.5873,VALID,100,VALID,0.752344,
2010-11-23, 02:33:04,VALID,914.252,VALID,0,VALID,97.2519,VALID,0,VALID,19.5858,VALID,100,VALID,0.571484,
2010-11-23, 02:34:04,VALID,914.233,VALID,0,VALID,97.2367,VALID,0,VALID,19.6248,VALID,100,VALID,0.646094,
2010-11-23, 02:35:04,VALID,914.233,VALID,0,VALID,97.2672,VALID,0,VALID,19.6248,VALID,100,VALID,1.00391,
2010-11-23, 02:36:04,VALID,914.208,VALID,0,VALID,97.2672,VALID,0,VALID,19.6443,VALID,100,VALID,1.16836,
2010-11-23, 02:37:04,VALID,914.231,VALID,0,VALID,97.29,VALID,0,VALID,19.6443,VALID,100,VALID,1.02422,
2010-11-23, 02:38:04,VALID,914.219,VALID,0,VALID,97.2824,VALID,0,VALID,19.6443,VALID,100,VALID,0.920313,
2010-11-23, 02:39:04,VALID,914.204,VALID,0,VALID,97.2748,VALID,0,VALID,19.6653,VALID,100,VALID,1.19102,
2010-11-23, 02:40:04,VALID,914.218,VALID,0,VALID,97.2748,VALID,0,VALID,19.6638,VALID,100,VALID,1.08398,
2010-11-23, 02:41:04,VALID,914.236,VALID,0,VALID,97.2977,VALID,0,VALID,19.6638,VALID,97,VALID,1.3168,
2010-11-23, 02:42:04,VALID,914.223,VALID,0,VALID,97.3129,VALID,0,VALID,19.7043,VALID,39,VALID,1.2457,
2010-11-23, 02:43:04,VALID,914.205,VALID,0,VALID,97.29,VALID,0,VALID,19.7028,VALID,39,VALID,1.28281,
2010-11-23, 02:44:04,VALID,914.202,VALID,0,VALID,97.3053,VALID,0,VALID,19.7043,VALID,39,VALID,1.45664,
2010-11-23, 02:45:04,VALID,914.205,VALID,0,VALID,97.2977,VALID,0,VALID,19.7028,VALID,39,VALID,1.28516,
2010-11-23, 02:46:04,VALID,914.176,VALID,0,VALID,97.3053,VALID,0,VALID,19.7238,VALID,39,VALID,1.14141,
2010-11-23, 02:47:04,VALID,914.169,VALID,0,VALID,97.3129,VALID,0,VALID,19.7238,VALID,39,VALID,0.819922,
2010-11-23, 02:48:04,VALID,914.176,VALID,0,VALID,97.3053,VALID,0,VALID,19.7028,VALID,39,VALID,0.881641,
2010-11-23, 02:49:04,VALID,914.131,VALID,0,VALID,97.3281,VALID,0,VALID,19.7223,VALID,39,VALID,0.213672,
2010-11-23, 02:50:04,VALID,914.105,VALID,0,VALID,97.3205,VALID,0,VALID,19.7433,VALID,39,VALID,0.537891,
2010-11-23, 02:51:04,VALID,914.09,VALID,0,VALID,97.3053,VALID,0,VALID,19.7223,VALID,39,VALID,0.645703,
2010-11-23, 02:52:04,VALID,914.057,VALID,0,VALID,97.3281,VALID,0,VALID,19.7028,VALID,38,VALID,0.382031,
2010-11-23, 02:53:04,VALID,914.058,VALID,0,VALID,97.3434,VALID,0,VALID,19.7028,VALID,39,VALID,0,
2010-11-23, 02:54:04,VALID,914.03,VALID,0,VALID,97.3205,VALID,0,VALID,19.7028,VALID,39,VALID,0.0925781,
2010-11-23, 02:55:04,VALID,914.006,VALID,0,VALID,97.3358,VALID,0,VALID,19.7028,VALID,39,VALID,0.00742187,
2010-11-23, 02:56:04,VALID,913.953,VALID,0,VALID,97.3205,VALID,0,VALID,19.7028,VALID,39,VALID,0,
2010-11-23, 02:57:04,VALID,913.923,VALID,0,VALID,97.3281,VALID,0,VALID,19.7238,VALID,39,VALID,0,
2010-11-23, 02:58:04,VALID,913.917,VALID,0,VALID,97.3281,VALID,0,VALID,19.6833,VALID,39,VALID,0,
2010-11-23, 02:59:04,VALID,913.848,VALID,0,VALID,97.3358,VALID,0,VALID,19.7028,VALID,39,VALID,0,
2010-11-23, 03:00:04,VALID,913.816,VALID,0,VALID,97.3358,VALID,0,VALID,19.6818,VALID,39,VALID,0,
2010-11-23, 03:01:04,VALID,913.731,VALID,0,VALID,97.3358,VALID,0,VALID,19.7028,VALID,39,VALID,0,
2010-11-23, 03:02:04,VALID,913.697,VALID,0,VALID,97.3586,VALID,0,VALID,19.6818,VALID,39,VALID,0,
2010-11-23, 03:03:04,VALID,913.697,VALID,0,VALID,97.3358,VALID,0,VALID,19.7028,VALID,39,VALID,0,
2010-11-23, 03:04:04,VALID,913.643,VALID,0,VALID,97.3434,VALID,0,VALID,19.7208,VALID,39,VALID,0,
2010-11-23, 03:05:04,VALID,913.628,VALID,0,VALID,97.3663,VALID,0,VALID,19.7418,VALID,39,VALID,0,
2010-11-23, 03:06:04,VALID,913.626,VALID,0,VALID,97.351,VALID,0,VALID,19.7418,VALID,39,VALID,0,
2010-11-23, 03:07:04,VALID,913.661,VALID,0,VALID,97.3586,VALID,0.107441,VALID,19.7403,VALID,39,VALID,0,
2010-11-23, 03:08:04,VALID,913.617,VALID,0,VALID,97.3663,VALID,0.107441,VALID,19.7403,VALID,39,VALID,0,
2010-11-23, 03:09:04,VALID,913.609,VALID,0,VALID,97.3434,VALID,0,VALID,19.7613,VALID,39,VALID,0,
2010-11-23, 03:10:04,VALID,913.613,VALID,0,VALID,97.3586,VALID,0,VALID,19.7613,VALID,38,VALID,0,
2010-11-23, 03:11:04,VALID,913.6,VALID,0,VALID,97.3663,VALID,0.107441,VALID,19.7418,VALID,39,VALID,0,
2010-11-23, 03:12:04,VALID,913.579,VALID,0,VALID,97.351,VALID,0,VALID,19.7013,VALID,39,VALID,0,
2010-11-23, 03:13:04,VALID,913.567,VALID,0,VALID,97.3434,VALID,0,VALID,19.7028,VALID,39,VALID,0,
2010-11-23, 03:14:04,VALID,913.596,VALID,0,VALID,97.3434,VALID,0.107441,VALID,19.6818,VALID,39,VALID,0,
2010-11-23, 03:15:04,VALID,913.567,VALID,0,VALID,97.351,VALID,0,VALID,19.6818,VALID,39,VALID,0,
2010-11-23, 03:16:04,VALID,913.585,VALID,0,VALID,97.3586,VALID,0,VALID,19.6623,VALID,39,VALID,0,
2010-11-23, 03:17:04,VALID,913.569,VALID,0,VALID,97.3586,VALID,0,VALID,19.6833,VALID,39,VALID,0,
2010-11-23, 03:18:04,VALID,913.586,VALID,0,VALID,97.351,VALID,0,VALID,19.6623,VALID,39,VALID,0,
2010-11-23, 03:19:04,VALID,913.58,VALID,0,VALID,97.3434,VALID,0,VALID,19.6623,VALID,39,VALID,0,
2010-11-23, 03:20:04,VALID,913.588,VALID,0,VALID,97.3739,VALID,0,VALID,19.7028,VALID,39,VALID,0,
2010-11-23, 03:21:04,VALID,913.578,VALID,0,VALID,97.3663,VALID,0,VALID,19.6623,VALID,39,VALID,0,
2010-11-23, 03:22:04,VALID,913.565,VALID,0,VALID,97.351,VALID,0,VALID,19.6638,VALID,39,VALID,0,
2010-11-23, 03:23:04,VALID,913.565,VALID,0,VALID,97.3663,VALID,0,VALID,19.6638,VALID,39,VALID,0,
2010-11-23, 03:24:04,VALID,913.557,VALID,0,VALID,97.3586,VALID,0.107441,VALID,19.6443,VALID,39,VALID,0,
2010-11-23, 03:25:04,VALID,913.554,VALID,0,VALID,97.3586,VALID,0,VALID,19.6233,VALID,39,VALID,0,
2010-11-23, 03:26:04,VALID,913.545,VALID,0,VALID,97.3586,VALID,0,VALID,19.6443,VALID,39,VALID,0,
2010-11-23, 03:27:04,VALID,913.501,VALID,0,VALID,97.3586,VALID,0,VALID,19.6053,VALID,39,VALID,0,
2010-11-23, 03:28:04,VALID,913.504,VALID,0,VALID,97.3815,VALID,0,VALID,19.5858,VALID,39,VALID,0,
2010-11-23, 03:29:04,VALID,913.495,VALID,0,VALID,97.3586,VALID,0,VALID,19.5258,VALID,39,VALID,0,
2010-11-23, 03:30:04,VALID,913.507,VALID,0,VALID,97.3663,VALID,0,VALID,19.5678,VALID,39,VALID,0,
2010-11-23, 03:31:04,VALID,913.515,VALID,0,VALID,97.3891,VALID,0,VALID,19.5678,VALID,39,VALID,0,
2010-11-23, 03:32:04,VALID,913.506,VALID,0,VALID,97.3739,VALID,0,VALID,19.5468,VALID,39,VALID,0,
2010-11-23, 03:33:04,VALID,913.538,VALID,0,VALID,97.3739,VALID,0,VALID,19.5468,VALID,39,VALID,0,
2010-11-23, 03:34:04,VALID,913.53,VALID,0,VALID,97.3739,VALID,0,VALID,19.5678,VALID,39,VALID,0,
2010-11-23, 03:35:04,VALID,913.544,VALID,0,VALID,97.3815,VALID,0,VALID,19.5663,VALID,39,VALID,0,
2010-11-23, 03:36:04,VALID,913.548,VALID,0,VALID,97.3891,VALID,0,VALID,19.5663,VALID,39,VALID,0,
2010-11-23, 03:37:04,VALID,913.564,VALID,0,VALID,97.4044,VALID,0,VALID,19.5858,VALID,39,VALID,0,
2010-11-23, 03:38:04,VALID,913.559,VALID,0,VALID,97.4044,VALID,0,VALID,19.6053,VALID,39,VALID,0,
2010-11-23, 03:39:04,VALID,913.552,VALID,0,VALID,97.3891,VALID,0,VALID,19.5873,VALID,39,VALID,0,
2010-11-23, 03:40:04,VALID,913.553,VALID,0,VALID,97.4044,VALID,0,VALID,19.5873,VALID,39,VALID,0,
2010-11-23, 03:41:04,VALID,913.571,VALID,0,VALID,97.3968,VALID,0,VALID,19.5483,VALID,39,VALID,0,
2010-11-23, 03:42:04,VALID,913.573,VALID,0,VALID,97.3968,VALID,0,VALID,19.5288,VALID,39,VALID,0.432813,
2010-11-23, 03:43:04,VALID,913.534,VALID,0,VALID,97.4044,VALID,0,VALID,19.5288,VALID,39,VALID,0,
2010-11-23, 03:44:04,VALID,913.556,VALID,0,VALID,97.4044,VALID,0,VALID,19.5288,VALID,39,VALID,0.396875,
2010-11-23, 03:45:04,VALID,913.538,VALID,0,VALID,97.412,VALID,0,VALID,19.5483,VALID,39,VALID,0.639453,
2010-11-23, 03:46:04,VALID,913.527,VALID,0,VALID,97.412,VALID,0,VALID,19.5483,VALID,39,VALID,0.692969,
2010-11-23, 03:47:04,VALID,913.53,VALID,0,VALID,97.412,VALID,0,VALID,19.5273,VALID,39,VALID,0.407031,
2010-11-23, 03:48:04,VALID,913.512,VALID,0,VALID,97.412,VALID,0,VALID,19.5483,VALID,39,VALID,0.432031,
2010-11-23, 03:49:04,VALID,913.514,VALID,0,VALID,97.4196,VALID,0,VALID,19.5483,VALID,39,VALID,0.0878906,
2010-11-23, 03:50:04,VALID,913.538,VALID,0,VALID,97.412,VALID,0,VALID,19.5678,VALID,39,VALID,0,
2010-11-23, 03:51:04,VALID,913.512,VALID,0,VALID,97.4273,VALID,0,VALID,19.5273,VALID,39,VALID,0,
2010-11-23, 03:52:04,VALID,913.533,VALID,0,VALID,97.4349,VALID,0,VALID,19.5468,VALID,38,VALID,0,
2010-11-23, 03:53:04,VALID,913.549,VALID,0,VALID,97.4349,VALID,0,VALID,19.5663,VALID,39,VALID,0,
2010-11-23, 03:54:04,VALID,913.559,VALID,0,VALID,97.4273,VALID,0,VALID,19.5678,VALID,39,VALID,0,
2010-11-23, 03:55:04,VALID,913.592,VALID,0,VALID,97.4425,VALID,0,VALID,19.5873,VALID,39,VALID,0,